Location: Chamerau
(49.1969°N, 12.7525°E)
Time: 03:15:59
(UTC+00:00)

SPOT 5 - Pass Details

Date: 18 September 2020
Orbit: 623 x 814 km, 98.3° (Epoch: 24 October)

Event Time Altitude Azimuth Distance (km) Brightness Sun altitude
Exits shadow 20:40:09 51° 358° (N) 993 3.7 -30.8°
Drops below altitude 10° 20:44:06 10° 348° (NNW) 2,392 6.2 -31.2°
Sets 20:46:30 0° 347° (NNW) 3,340 7.2 -31.5°
